SCP
0 0 0 0 0 0 0 0 0 0 0 0 0 0 0 0 0 0 0 0 0 0
0 0 0 0 0 0 0 0 0 0 0 0 0 0 0 0 0 0 0 0 0 0
0 0 0 0 0 0 0 0 0 0 0 0 0 0 0 0 0 0 0 0 0 0
0 0 0 0 0 0 0 0 0 0 0 0 0 0 0 0 0 0 0 0 0 0
0 0 0 0 0 0 0 0 0 0 0 0 0 0 0 0 0 0 0 0 0 0
0 0 0 0 0 0 0 0 0 0 0 0 0 0 0 0 0 0 0 0 0 0
0 0 0 0 0 0 0 0 0 0 0 0 0 0 0 0 0 0 0 0 0 0
0 0 0 0 0 0 0 0 0 0 0 0 0 0 0 0 0 0 0 0 0 0
0 0 0 0 0 0 0 0 0 0 0 0 0 0 0 0 0 0 0 0 0 0
0 0 0 0 0 0 0 0 0 0 0 0 0 0 0 0 0 0 0 0 0 0
0 0 0 0 0 0 0 0 0 0 0 0 0 0 0 0 0 0 0 0 0 0
0 0 0 0 0 0 -0 0 0 -0 -0 -0 -0 0 0 0 0 0 0 0 0 0
-0 -0 -0 -0 -0 -0 -0 -0 -0 -0 -0 0 -0 0 0 0 0 0 0 0 0 0
0 0 -0 -0 -0 -0 -0 -0 -0 -0 -0 0 0 0 0 0 0 0 0 0 0 0
Wind_Speed_500mb
30 31 31 34 34 33 34 41 53 48 48 45 42 44 50 53 52 58 70 76 80 83
24 29 31 34 38 38 39 39 41 47 55 56 55 49 41 43 46 47 53 62 64 67
21 24 25 26 28 28 30 34 38 42 44 45 45 45 46 42 41 41 45 49 53 57
19 20 21 23 25 26 28 30 31 32 34 38 41 45 51 49 44 40 39 36 40 45
17 17 18 20 22 23 26 28 31 33 35 38 39 39 37 32 33 35 33 32 35 40
20 20 19 19 19 22 24 25 29 33 34 35 31 28 28 28 28 31 33 32 32 34
15 16 17 15 16 16 16 16 17 17 18 18 16 17 18 22 24 27 32 32 33 30
10 12 13 13 14 14 12 9 9 5 11 15 16 14 17 21 22 22 23 23 20 16
13 12 11 10 10 8 6 6 7 8 10 11 15 19 15 12 13 10 8 6 5 4
6 5 6 6 5 8 12 15 15 16 17 17 22 21 22 23 19 17 13 10 8 5
7 6 9 11 15 21 22 19 19 22 20 19 23 20 20 22 17 13 9 8 7 7
12 13 16 20 26 27 23 23 23 24 23 23 23 23 19 16 13 11 9 9 8 8
20 21 23 26 27 25 20 19 21 19 19 21 18 16 14 14 13 12 13 13 14 15
27 26 24 23 21 19 18 17 16 15 14 12 13 14 14 15 16 17 19 20 21 21
Wind_Direction_500mb
271 268 266 266 268 268 266 260 255 256 257 265 270 274 275 273 276 273 271 271 276 274
265 263 261 263 267 268 267 263 263 262 261 263 265 267 270 281 281 277 275 275 279 281
263 262 269 269 270 268 266 265 262 261 264 267 269 269 267 270 277 276 273 271 274 277
262 265 267 269 274 280 282 280 278 273 271 273 271 265 267 275 280 276 275 273 273 274
268 272 273 274 281 290 293 292 290 286 282 279 277 277 273 267 265 271 268 273 281 278
270 276 281 285 292 298 298 302 307 299 287 282 282 275 267 260 258 260 262 267 274 272
282 288 287 284 291 295 299 303 314 335 332 320 314 307 291 277 271 278 280 278 272 266
305 297 290 284 282 286 292 295 302 341 345 346 347 335 324 320 310 299 292 286 281 279
314 315 312 303 287 297 322 18 29 34 50 32 35 39 28 34 30 17 17 25 52 54
298 297 274 331 26 59 71 71 70 71 71 73 76 72 68 69 66 67 69 65 58 47
186 147 113 101 102 93 87 89 89 83 77 80 82 74 67 64 62 57 45 31 13 355
136 130 119 117 106 96 90 87 85 81 74 63 63 56 48 42 30 22 20 14 6 358
127 122 121 113 105 100 92 83 78 74 72 66 58 57 42 26 13 359 352 342 333 321
129 127 122 116 109 102 91 79 70 65 58 47 33 17 2 352 343 339 331 326 324 323
Wind_Speed_850mb
30 31 31 34 34 33 34 41 53 48 48 45 42 44 50 53 52 58 70 76 80 83
24 29 31 34 38 38 39 39 41 47 55 56 55 49 41 43 46 47 53 62 64 67
21 24 25 26 28 28 30 34 38 42 44 45 45 45 46 42 41 41 45 49 53 57
19 20 21 23 25 26 28 30 31 32 34 38 41 45 51 49 44 40 39 36 40 45
17 17 18 20 22 23 26 28 31 33 35 38 39 39 37 32 33 35 33 32 35 40
20 20 19 19 19 22 24 25 29 33 34 35 31 28 28 28 28 31 33 32 32 34
15 16 17 15 16 16 16 16 17 17 18 18 16 17 18 22 24 27 32 32 33 30
10 12 13 13 14 14 12 9 9 5 11 15 16 14 17 21 22 22 23 23 20 16
13 12 11 10 10 8 6 6 7 8 10 11 15 19 15 12 13 10 8 6 5 4
6 5 6 6 5 8 12 15 15 16 17 17 22 21 22 23 19 17 13 10 8 5
7 6 9 11 15 21 22 19 19 22 20 19 23 20 20 22 17 13 9 8 7 7
12 13 16 20 26 27 23 23 23 24 23 23 23 23 19 16 13 11 9 9 8 8
20 21 23 26 27 25 20 19 21 19 19 21 18 16 14 14 13 12 13 13 14 15
27 26 24 23 21 19 18 17 16 15 14 12 13 14 14 15 16 17 19 20 21 21
Wind_Direction_850mb
271 268 266 266 268 268 266 260 255 256 257 265 270 274 275 273 276 273 271 271 276 274
265 263 261 263 267 268 267 263 263 262 261 263 265 267 270 281 281 277 275 275 279 281
263 262 269 269 270 268 266 265 262 261 264 267 269 269 267 270 277 276 273 271 274 277
262 265 267 269 274 280 282 280 278 273 271 273 271 265 267 275 280 276 275 273 273 274
268 272 273 274 281 290 293 292 290 286 282 279 277 277 273 267 265 271 268 273 281 278
270 276 281 285 292 298 298 302 307 299 287 282 282 275 267 260 258 260 262 267 274 272
282 288 287 284 291 295 299 303 314 335 332 320 314 307 291 277 271 278 280 278 272 266
305 297 290 284 282 286 292 295 302 341 345 346 347 335 324 320 310 299 292 286 281 279
314 315 312 303 287 297 322 18 29 34 50 32 35 39 28 34 30 17 17 25 52 54
298 297 274 331 26 59 71 71 70 71 71 73 76 72 68 69 66 67 69 65 58 47
186 147 113 101 102 93 87 89 89 83 77 80 82 74 67 64 62 57 45 31 13 355
136 130 119 117 106 96 90 87 85 81 74 63 63 56 48 42 30 22 20 14 6 358
127 122 121 113 105 100 92 83 78 74 72 66 58 57 42 26 13 359 352 342 333 321
129 127 122 116 109 102 91 79 70 65 58 47 33 17 2 352 343 339 331 326 324 323